Погода в Посольском

Россия / Республика Бурятия     52°01′19″N   106°11′11″E
темп.,
°C
ветер,
м/с
пор.,
м/с
влажн.,
%
обл.,
%
осадки,
мм/ч
давл.,
гПа
погр.,
м
14 мая, пт
пт1423:000юз34718 0.0 101854
02:000ююз357392 0.0 101997
05:00−1юз367967 0.0 1020122
08:00+4зюз576018 0.0 1020388
11:00+7зюз66493 0.0 1019756
14:00+9зюз66403 0.0 1017796
17:00+10зюз45380 0.0 1016569
20:00+7ююз22470 0.0 101614
15 мая, сб
сб1523:00+5юв32520 0.0 101718
02:00+3юв11560 0.0 101615
05:00+2ю11615 0.0 101611
08:00+6зюз57520 0.0 1018315
11:00+9зюз911605 0.0 1020704
14:00+10зюз9105754 0.0 1019655
17:00+10зюз795138 0.0 1017502
20:00+7юз356379 0.0 101788
16 мая, вс
вс1623:00+6ююз3358100 0.0 101736
02:00+6зюз2362100 0.0 101832
05:00+5ююз35665 0.0 101661
08:00+12юз365499 0.0 1013299
11:00+13зюз6949100 0.0 1012437
14:00+11сз61367100 0.0 1014610
17:00+9зюз597759 0.1 1014276
20:00+9зюз358043 0.1 101397
17 мая, пн
пн1723:00+7ю228898 0.0 101225
02:00+7ююв2287100 0.0 100921
05:00+6ююз118899 0.0 100515
08:00+10сз3572100 0.0 1005282
11:00+8юз71383100 0.3 1008436
14:00+11з677285 0.4 1008622
17:00+12зюз566450 0.0 1005451
20:00+10ю1172100 0.0 100211
18 мая, вт
вт1823:00+9ссв3372100 0.0 100151
02:00+8ссз228290 0.1 100339
05:00+5юз5895100 0.6 1005207
08:00+6з61088100 2.1 1009599
11:00+6з587484 0.6 1011853
14:00+8зюз776385 0.6 1010932
17:00+9зюз685798 0.0 1008572
20:00+6ююз3470100 0.1 100878